Location: Seattle
(47.6064°N, 122.3308°W)
Time: 11:23:58
(UTC-07:00)

JY1SAT - Visible Passes

Search period start: 28 March 2023 00:00
Search period end: 07 April 2023 00:00
Orbit: 557 x 578 km, 97.6° (Epoch: 27 March)

Date Brightness Start Highest point End Pass type
(mag) Time Alt. Az. Time Alt. Az. Time Alt. Az.
28 Mar ? 20:51:06 11° ENE 20:51:24 11° ENE 20:52:45 10° NE visible
28 Mar ? 22:27:11 42° NNW 22:27:11 42° NNW 22:29:54 10° NNW visible
29 Mar ? 20:52:06 12° ENE 20:52:28 12° ENE 20:53:57 10° NE visible
29 Mar ? 22:28:10 44° NNW 22:28:10 44° NNW 22:30:59 10° NNW visible
30 Mar ? 20:53:05 12° ENE 20:53:32 12° ENE 20:55:07 10° NE visible
30 Mar ? 22:29:09 46° NNW 22:29:09 46° NNW 22:32:04 10° NNW visible
31 Mar ? 20:54:03 12° ENE 20:54:34 12° ENE 20:56:16 10° NE visible
31 Mar ? 22:30:07 48° NNW 22:30:07 48° NNW 22:33:07 10° NNW visible
01 Apr ? 20:55:01 12° ENE 20:55:37 13° ENE 20:57:23 10° NNE visible
01 Apr ? 22:31:04 50° NNW 22:31:04 50° NNW 22:34:11 10° NNW visible
02 Apr ? 20:55:57 13° ENE 20:56:39 13° ENE 20:58:30 10° NNE visible
02 Apr ? 22:32:01 52° NW 22:32:01 52° NW 22:35:12 10° NNW visible
03 Apr ? 20:56:53 13° ENE 20:57:39 13° ENE 20:59:36 10° NNE visible
03 Apr ? 22:32:57 54° NW 22:32:57 54° NW 22:36:14 10° NNW visible
04 Apr ? 20:57:48 13° ENE 20:58:39 14° ENE 21:00:41 10° NNE visible
04 Apr ? 22:33:52 56° NW 22:33:52 56° NW 22:37:15 10° NNW visible
05 Apr ? 20:58:43 13° ENE 20:59:38 14° ENE 21:01:45 10° NNE visible
05 Apr ? 22:34:47 57° NW 22:34:47 57° NW 22:38:15 10° NNW visible
06 Apr ? 20:59:37 13° ENE 21:00:37 14° ENE 21:02:47 10° NNE visible
06 Apr ? 22:35:41 58° WNW 22:35:41 58° WNW 22:39:14 10° NNW visible
